Langley AFB, VA

3:34 AM EDT on April 22, 2018 (GMT -0400)
Langley Air Force Base

Weather History for KLFI - October, 2012

Change the Weather History Date:

Saturday, October 6, 2012

  Actual Average Record
Temperature  
Mean Temperature 74 °F -  
Max Temperature 82 °F 72 °F 94 °F (1941)
Min Temperature 64 °F 55 °F 35 °F (1965)
Cooling Degree Days 9    
Growing Degree Days 24 (Base 50)    
Moisture  
Dew Point 53 °F    
Average Humidity 49    
Maximum Humidity 73    
Minimum Humidity 31    
Precipitation  
Precipitation 0.00 in - - ()
Sea Level Pressure  
Sea Level Pressure 29.93 in    
Wind  
Wind Speed 11 mph (West)    
Max Wind Speed 18 mph    
Max Gust Speed 24 mph    
Visibility 10 miles    
Events Rain    
Averages and records for this station are not official NWS values.
T = Trace of Precipitation, MM = Missing Value Source: NWS Daily Summary

Daily Weather History Graph

Daily Weather History Graph

Search for Another Location

Airport or City:

Astronomy

Oct. 06, 2012 Rise Set
Actual Time 7:05 AM EDT 6:40 PM EDT
Civil Twilight 6:39 AM EDT 7:06 PM EDT
Nautical Twilight 6:09 AM EDT 7:36 PM EDT
Astronomical Twilight 5:39 AM EDT 8:06 PM EDT
Moon 11:00 PM EDT (10/6) 12:52 PM EDT (10/6)
Length of Visible Light 12h 27m
Length of Day
11h 35m
Waning Gibbous, 65% of the Moon is Illuminated
Oct 6
Waning Gibbous
Oct 8
Last Quarter
Oct 15
New
Oct 21
First Quarter
Oct 29
Full

Hourly Weather History & Observations

Time (EDT) Temp. Heat Index Dew Point Humidity Pressure Visibility Wind Dir Wind Speed Gust Speed Precip Events Conditions
12:55 AM 66.0 °F - 57.0 °F 73% 30.01 in 10.0 mi SSW 8.1 mph - N/A   Clear
8:35 AM 68.0 °F - 59.0 °F 73% 29.95 in 10.0 mi SW 10.4 mph - N/A   Clear
8:55 AM 68.5 °F - 57.6 °F 68% 29.96 in 10.0 mi SW 11.5 mph - N/A   Clear
9:55 AM 71.2 °F - 55.6 °F 58% 29.96 in 10.0 mi SSW 12.7 mph - N/A   Clear
10:55 AM 75.2 °F - 54.0 °F 47% 29.94 in 10.0 mi SW 13.8 mph - N/A   Clear
11:55 AM 77.5 °F - 55.4 °F 46% 29.92 in 10.0 mi SW 17.3 mph 21.9 mph N/A   Clear
12:55 PM 80.2 °F 80.3 °F 55.0 °F 42% 29.89 in 10.0 mi SSW 16.1 mph - N/A   Clear
1:55 PM 81.5 °F - 51.4 °F 35% 29.86 in 10.0 mi SW 18.4 mph 24.2 mph N/A   Clear
2:55 PM 82.6 °F - 49.6 °F 32% 29.86 in 10.0 mi WSW 13.8 mph 23.0 mph N/A   Clear
3:55 PM 82.0 °F - 48.9 °F 31% 29.86 in 10.0 mi WSW 12.7 mph - N/A   Clear
4:55 PM 79.3 °F - 53.1 °F 40% 29.86 in 10.0 mi West 6.9 mph - N/A   Mostly Cloudy
5:55 PM 77.2 °F - 52.9 °F 43% 29.88 in 10.0 mi West 6.9 mph - N/A   Scattered Clouds
6:55 PM 75.4 °F - 55.0 °F 49% 29.90 in 10.0 mi WNW 4.6 mph - N/A   Mostly Cloudy
7:18 PM 75.2 °F - 55.4 °F 50% 29.91 in 10.0 mi NW 4.6 mph - N/A Rain Light Rain
7:26 PM 75.2 °F - 55.4 °F 50% 29.92 in 10.0 mi NW 4.6 mph - N/A   Overcast
7:55 PM 72.5 °F - 57.2 °F 59% 29.94 in 10.0 mi North 12.7 mph - 0.00 in   Overcast
8:55 PM 69.8 °F - 54.0 °F 57% 29.97 in 10.0 mi North 13.8 mph - N/A   Overcast
9:55 PM 67.6 °F - 44.8 °F 44% 29.99 in 10.0 mi North 15.0 mph - N/A   Clear
10:55 PM 67.3 °F - 43.0 °F 41% 30.01 in 10.0 mi North 15.0 mph - N/A   Overcast
11:55 PM 64.8 °F - 37.0 °F 36% 30.01 in 10.0 mi North 12.7 mph - N/A   Overcast